Погода Тарко-Сале

Хотите узнать прогноз погоды Тарко-Сале? Тогда Вам сюда: Погода Тарко-Сале

Поиск расширенной информации на нашем сайте:

Полезная информация:

Новости сайта



02.01.2020
Опубликован Долгосрочный прогноз погоды по городам России и ближнего зарубежья на январь 2020 года.
Карты: Прогноз на январь и февраль 2020 года, Сравнение прогнозируемой аномалии приземной температуры воздуха на январь 2020 года по разным моделям.




Погода Тарко-Сале - сегодня

Время (UTC), дата Ветер
(°,м/с) 
Видим.   Явления Облачность Т
(°С)
Тd
(°С)
f(%) Тe
(°С)
Pmin
(гПа)
dP
(гПа)
Po
(мм)
O2
(г/м3)
Тmin Tmax R s Состояние
почвы
00 16.01.22 120 (ЮВ) 4000 м  слаб. снег  10/8 360 м средняя 
[Sc|As op]
-13.2 -15.1 86 -17  999.5  -1.4  747  318           
03 16.01.22 130 (ЮВ) 4000 м  слаб. ливневой снег  10/10 300 м кучево-дожд. 
[Cb cap]
-12.9 -15 84 -16  998.3  -1.1  746  317  -15.5    0.3  61  равномерный
сухой снег
100% 
06 16.01.22 130 (ЮВ) 4000 м  слаб. ливневой снег  10/8 270 м кучево-дожд., средняя 
[Cb cap|As op]
-12.8 -14.5 87 -16  997.4  -0.9  746  316           
09 16.01.22 140 (ЮВ) 10 км  позёмок{ливн. осадки}  10/4 600 м кучево-дожд., средняя, верхняя 
[Cb cap|As op|Ci fib]
-12.5 -14.5 85 -16  997.7  0.3  746  316           
12 16.01.22 180 (Ю) 10 км  {ливн. осадки}  8/8 450 м кучево-дожд. 
[Cb cap]
-11 -13 85 -14  999.3  1.6  747  315           
15 16.01.22 140 (ЮВ) 4000 м  слаб. снег  10/10 720 м 
[Sc]
-12 -13.6 88 -14  1000.2  0.9  748  316    -10.9  0.5     
18 16.01.22 140 (ЮВ) 4000 м  слаб. снег  10/10 330 м 
[Sc]
-9.2 -10.4 91 -12  999.8  -0.4  747  313           
21 16.01.22 130 (ЮВ) 4000 м  слаб. снег  10/10 240 м 
[Sc]
-8.5 -9.2 95 -11  997.7  -2.1  746  311           
00 17.01.22 110 (В) 4{10}  4000 м  слаб. снег  10/10 240 м 
[Sc]
-8.1 -8.6 96 -12  993.7  -4  743  309           
03 17.01.22 110 (В) 4{10}  2000 м  слаб. снег  10/10 100 м 
[Frnb|Ns]
-8 -8.5 96 -12  988.9  -4.7  739  308  -12    61  равномерный
сухой снег
100% 
06 17.01.22 130 (ЮВ) 4-10{12}  4000 м  слаб. ливневой снег  10/6 400 м кучево-дожд., средняя, верхняя 
[Cb cap|Ac As|Ci fib]
-7.4 -8.2 94 -11  985.7  -3.2  737  306           
09 17.01.22 140 (ЮВ) 4{10}  4000 м  слаб. ливневой снег  10/6 360 м кучево-дожд., средняя 
[Cb cap|Ac As]
-6 -6.8 94 -9  984.8  -0.9  736  304           
12 17.01.22 140 (ЮВ) 3{10}  2000 м  ливневой снег  10/8 240 м кучево-дожд., средняя 
[Cb cap|As trans]
-5.4 -5.8 97 -8  984.2  -0.6  736  303           
15 17.01.22 170 (Ю) 3{11}  4000 м  слаб. ливневой снег  10/8 330 м кучево-дожд., средняя 
[Cb cap|As op]
-7.8 -8.6 94 -11  985.1  0.9  736  306    -5     
18 17.01.22 150 (ЮВ) 4{12}  4000 м  слаб. ливневой снег  10/10 270 м кучево-дожд. 
[Cb cap]
-9.2 -10.3 92 -13  985  -0.1  736  308           
21 17.01.22 190 (Ю) 5-12{12}  4000 м  слаб. ливневой снег  10/8 330 м кучево-дожд., средняя 
[Cb cap|As op]
-12.5 -14.3 86 -18  987.6  2.5  738  313           
00 18.01.22 200 (Ю) 3-10{12}  4000 м  слаб. ливневой снег  10/10 400 м кучево-дожд. 
[Cb cap]
-14.4 -16.4 85 -18  990.8  3.2  741  316           
03 18.01.22 190 (Ю) 4{10}  10 км  слаб. снег{ливн. осадки}  10/0 средняя, верхняя 
[As op|Cs]
-16.6 -18.6 85 -22  993.4  2.5  742  320  -16.6    64  равномерный
сухой снег
100% 
06 18.01.22 200 (Ю) 10 км  слаб. снег{ливн. осадки}  10/0 средняя, верхняя 
[Ac trans|Cs]
-17.3 -19.3 84 -20  995.4  744  322  -17.7         
09 18.01.22 210 (ЮЗ) 10 км  {снег}  10/0 средняя, верхняя 
[Ac trans|Cs]
-16.7 -18.6 85 -19  997.8  2.5  746  322           
12 18.01.22 210 (ЮЗ) 10 км  слаб. снег  10/0 средняя, верхняя 
[Ac trans|Cs]
-18.2 -20.2 84 -21  1000.6  2.7  748  324           
15 18.01.22 210 (ЮЗ) 4000 м  слаб. снег  10/8 420 м верхняя 
[Sc|Cs]
-17.4 -19.2 86 -18  1002  1.4  749  324    -15.8  0.3     
18 18.01.22 200 (Ю) 4000 м  слаб. снег  10/9 300 м верхняя 
[Sc|Cs]
-16.8 -18.6 86 -17  1002.5  0.5  749  323           
21 18.01.22 180 (Ю) 4000 м  слаб. ливневой снег  10/9 270 м кучево-дожд., верхняя 
[Cb cap|Cs]
-16.9 -18.6 87 -17  1002.3  -0.2  749  323           
00 19.01.22 160 (Ю) 4000 м  слаб. ливневой снег  10/8 270 м кучево-дожд., верхняя 
[Cb cap|Cs]
-14.9 -16.3 89 -15  1001.6  -0.6  749  320           
Время (UTC), дата Ветер
(°,м/с) 
Видим.   Явления Облачность Т
(°С)
Тd
(°С)
f(%) Тe
(°С)
Pmin
(гПа)
dP
(гПа)
Po
(мм)
O2
(г/м3)
Тmin Tmax R s Состояние
почвы

Для получения пояснительной информации подведите курсор к названию столбца.

ПОГОДА Тарко-Сале - архив

Всё, что Вы хотите узнать о погоде Тарко-Сале - удобно и подробно!

Выберите нужную дату (начиная с 1 января 2019* года) и нажмите кнопку "Найти".
Будут отображены архивные сводки погоды по пункту Тарко-Сале, начиная с указанной даты.


Отображать данные в формате CSV (для использования в таблицах Excel)


Внимание! Наш архив погоды предназначен исключительно для личного некоммерческого использования в познавательных целях. Если Вам необходимы официальные справки о состоянии погоды (для производственных, юридических, коммерческих и т.п. целей), обращайтесь в органы Росгидромета.

*Примечание: данная дата относится к архиву по метеостанциям СССР (Россия, СНГ, Балтия).
Архив по метеостанциям Зарубежной Европы и Азии (кроме Китая) хранится 10 дней, по другим регионам земного шара (Китай, Африка, Америка, Австралия, Океания) - 1 день.

Тарко-Сале - район местоположения метеостанции


Название, широта, долгота, высота метеостанции:
Тарко-Сале 64.9°ш. 77.8°д. 27 м над ур. моря [Российская Федерация]

Дополнительная информация

В oтличие oт бoльшинства пoгoдных сайтoв мы публикуем пoдрoбную метеoинфoрмацию в детальнoм прoфессиoнальнoм фoрмате.

Характеристики температуры и влажнoсти вoздуха измеряются на высoте 2 м в тени вдали oт зданий и деревьев.
Скoрoсть ветра измеряется на высoте 10 м (на урoвне рoста челoвека скoрoсть ветра ниже в 1.5-2 раза). Если метеoстанция нахoдится в гoрoде или в лесу, тo скoрoсть ветра занижена на 2-4 м/с пo сравнению с oткрытым местoм. Скoрoсть ветра над акватoриями крупных рек и oзёр, а также на вершинах хoлмoв на 2-5 м/с выше, чем в oбычных услoвиях.
Атмoсфернoе давление в разных тoчках местнoсти мoжет значительнo oтличаться oт давления на метеoстанции, в зависимoсти oт услoвий рельефа (при пoдъёме на 10 м давление пoнижается примернo на 1 мм рт.ст.).